QPF
0.00 0.00 0.00 0.01 0.01 0.01 0.01 0.03 0.05 0.06 0.06 0.06 0.04 0.03 0.02 0.01 0.01 0.02 0.02 0.01 0.01 0.02 0.04 0.07 0.08 0.08 0.06 0.06 0.06 0.06 0.06 0.06 0.06 0.05 0.04 0.05 0.08 0.10 0.12 0.13 0.12 0.10 0.08
0.03 0.04 0.03 0.03 0.04 0.05 0.06 0.10 0.13 0.15 0.14 0.12 0.09 0.08 0.08 0.07 0.05 0.04 0.03 0.03 0.01 0.01 0.02 0.05 0.08 0.09 0.07 0.07 0.07 0.06 0.06 0.06 0.05 0.04 0.04 0.04 0.05 0.06 0.08 0.10 0.11 0.09 0.06
0.12 0.13 0.10 0.09 0.14 0.20 0.21 0.24 0.26 0.24 0.20 0.18 0.15 0.18 0.18 0.16 0.12 0.09 0.06 0.05 0.03 0.02 0.01 0.03 0.06 0.08 0.09 0.11 0.11 0.10 0.08 0.06 0.05 0.05 0.04 0.03 0.03 0.03 0.04 0.05 0.07 0.06 0.04
0.24 0.25 0.19 0.19 0.32 0.39 0.39 0.39 0.37 0.31 0.26 0.24 0.22 0.24 0.23 0.19 0.17 0.12 0.06 0.05 0.03 0.01 0.01 0.01 0.03 0.05 0.08 0.13 0.17 0.16 0.11 0.08 0.06 0.05 0.04 0.03 0.03 0.03 0.02 0.03 0.03 0.03 0.02
0.30 0.33 0.27 0.31 0.45 0.53 0.50 0.48 0.44 0.39 0.32 0.30 0.28 0.24 0.21 0.17 0.13 0.09 0.05 0.03 0.01 0.01 0.01 0.01 0.01 0.04 0.08 0.14 0.17 0.16 0.13 0.11 0.08 0.07 0.06 0.05 0.04 0.03 0.02 0.02 0.02 0.02 0.02
0.32 0.41 0.32 0.33 0.45 0.52 0.50 0.48 0.45 0.38 0.33 0.32 0.29 0.19 0.13 0.11 0.09 0.06 0.04 0.02 0.01 0.00 0.00 0.01 0.01 0.02 0.03 0.08 0.11 0.14 0.15 0.13 0.09 0.07 0.08 0.07 0.07 0.04 0.01 0.01 0.01 0.01 0.01
0.21 0.29 0.29 0.34 0.41 0.41 0.38 0.41 0.43 0.36 0.29 0.33 0.30 0.18 0.11 0.09 0.07 0.04 0.03 0.02 0.01 0.01 0.01 0.01 0.01 0.02 0.02 0.03 0.07 0.10 0.12 0.10 0.08 0.08 0.10 0.10 0.09 0.06 0.02 0.01 0.00 0.00 0.01
0.15 0.17 0.19 0.22 0.30 0.34 0.31 0.33 0.36 0.33 0.27 0.32 0.33 0.25 0.13 0.08 0.06 0.05 0.04 0.03 0.02 0.02 0.02 0.03 0.03 0.04 0.05 0.05 0.05 0.04 0.04 0.07 0.09 0.10 0.11 0.10 0.09 0.06 0.03 0.01 0.01 0.00 0.00
0.08 0.09 0.11 0.15 0.18 0.24 0.22 0.24 0.30 0.32 0.28 0.29 0.33 0.33 0.23 0.13 0.10 0.08 0.05 0.03 0.02 0.02 0.03 0.05 0.06 0.09 0.08 0.06 0.05 0.04 0.03 0.04 0.07 0.13 0.14 0.12 0.09 0.07 0.05 0.03 0.01 0.01 0.00
0.02 0.03 0.05 0.08 0.11 0.14 0.13 0.16 0.21 0.23 0.24 0.23 0.24 0.27 0.27 0.21 0.14 0.07 0.04 0.03 0.02 0.02 0.03 0.05 0.06 0.07 0.07 0.07 0.07 0.06 0.05 0.04 0.03 0.06 0.10 0.11 0.11 0.09 0.08 0.08 0.06 0.04 0.01
0.00 0.01 0.01 0.02 0.04 0.04 0.05 0.07 0.08 0.10 0.13 0.14 0.14 0.14 0.15 0.13 0.09 0.06 0.03 0.02 0.02 0.02 0.04 0.07 0.07 0.07 0.07 0.07 0.07 0.06 0.05 0.04 0.03 0.03 0.04 0.08 0.12 0.14 0.14 0.15 0.14 0.10 0.05
0.00 0.00 0.00 0.00 0.01 0.01 0.01 0.02 0.03 0.04 0.05 0.05 0.06 0.07 0.08 0.07 0.05 0.04 0.03 0.02 0.02 0.03 0.05 0.09 0.08 0.06 0.04 0.04 0.03 0.03 0.03 0.03 0.03 0.03 0.03 0.05 0.10 0.15 0.20 0.22 0.24 0.23 0.19
0.00 0.00 0.00 0.00 0.00 0.00 0.01 0.01 0.02 0.02 0.03 0.03 0.03 0.04 0.04 0.03 0.03 0.03 0.02 0.02 0.03 0.03 0.06 0.10 0.10 0.05 0.03 0.02 0.01 0.01 0.01 0.01 0.01 0.02 0.02 0.03 0.06 0.11 0.18 0.23 0.26 0.26 0.25
0.00 0.00 0.00 0.00 0.00 0.00 0.01 0.01 0.02 0.02 0.02 0.03 0.02 0.03 0.03 0.03 0.03 0.03 0.03 0.03 0.03 0.04 0.07 0.11 0.10 0.05 0.03 0.01 0.01 0.00 0.00 0.00 0.00 0.00 0.01 0.01 0.02 0.05 0.09 0.14 0.18 0.22 0.25
0.00 0.00 0.00 0.00 0.00 0.01 0.01 0.02 0.03 0.03 0.04 0.04 0.04 0.05 0.04 0.04 0.05 0.05 0.05 0.05 0.05 0.06 0.08 0.10 0.09 0.04 0.02 0.01 0.00 0.00 0.00 0.00 0.00 0.00 0.00 0.00 0.01 0.02 0.04 0.06 0.09 0.12 0.14
0.00 0.00 0.00 0.00 0.00 0.01 0.02 0.03 0.03 0.04 0.06 0.07 0.09 0.09 0.09 0.08 0.08 0.09 0.10 0.12 0.11 0.09 0.08 0.07 0.05 0.03 0.01 0.00 0.00 0.00 0.00 0.00 0.00 0.00 0.00 0.00 0.00 0.00 0.01 0.02 0.03 0.05 0.07
0.00 0.00 0.00 0.00 0.00 0.01 0.02 0.04 0.05 0.07 0.10 0.13 0.16 0.15 0.14 0.14 0.13 0.12 0.13 0.15 0.14 0.11 0.07 0.05 0.03 0.02 0.01 0.00 0.00 0.00 0.00 0.00 0.00 0.00 0.00 0.00 0.00 0.00 0.00 0.00 0.00 0.01 0.02
0.00 0.00 0.00 0.00 0.00 0.01 0.02 0.03 0.05 0.09 0.13 0.16 0.18 0.19 0.20 0.19 0.16 0.15 0.14 0.13 0.12 0.09 0.06 0.03 0.02 0.01 0.00 0.00 0.00 0.00 0.00 0.00 0.00 0.00 0.00 0.00 0.00 0.00 0.00 0.00 0.00 0.00 0.00
0.00 0.00 0.00 0.00 0.01 0.03 0.04 0.06 0.08 0.13 0.17 0.22 0.27 0.29 0.26 0.21 0.17 0.15 0.12 0.09 0.07 0.05 0.03 0.02 0.01 0.00 0.00 0.00 0.00 0.00 0.00 0.00 0.00 0.00 0.00 0.00 0.00 0.00 0.00 0.00 0.00 0.00 0.00
0.00 0.00 0.00 0.01 0.02 0.02 0.05 0.08 0.12 0.16 0.20 0.22 0.25 0.28 0.27 0.21 0.15 0.12 0.09 0.06 0.04 0.02 0.01 0.00 0.00 0.00 0.00 0.00 0.00 0.00 0.00 0.00 0.00 0.00 0.00 0.00 0.00 0.00 0.00 0.00 0.00 0.00 0.00
0.00 0.00 0.00 0.01 0.02 0.02 0.03 0.06 0.08 0.10 0.13 0.14 0.14 0.14 0.14 0.14 0.13 0.09 0.06 0.04 0.02 0.01 0.01 0.00 0.00 0.00 0.00 0.00 0.00 0.00 0.00 0.00 0.00 0.00 0.00 0.00 0.00 0.00 0.00 0.00 0.00 0.00 0.00
0.00 0.00 0.00 0.01 0.01 0.02 0.03 0.03 0.03 0.03 0.05 0.06 0.09 0.10 0.08 0.07 0.07 0.07 0.05 0.04 0.03 0.02 0.01 0.01 0.00 0.00 0.00 0.00 0.00 0.00 0.00 0.00 0.00 0.00 0.00 0.00 0.00 0.00 0.00 0.00 0.00 0.00 0.00
0.00 0.00 0.00 0.00 0.01 0.02 0.04 0.04 0.02 0.02 0.02 0.02 0.03 0.06 0.05 0.04 0.03 0.02 0.02 0.02 0.02 0.02 0.01 0.00 0.00 0.00 0.00 0.00 0.00 0.00 0.00 0.00 0.00 0.00 0.00 0.00 0.00 0.00 0.00 0.00 0.00 0.00 0.00
0.00 0.00 0.00 0.00 0.00 0.01 0.02 0.04 0.03 0.02 0.02 0.03 0.02 0.02 0.01 0.01 0.01 0.01 0.01 0.00 0.00 0.00 0.00 0.00 0.00 0.00 0.00 0.00 0.00 0.00 0.00 0.00 0.00 0.00 0.00 0.00 0.00 0.00 0.00 0.00 0.00 0.00 0.00
0.00 0.00 0.00 0.00 0.00 0.00 0.00 0.01 0.01 0.01 0.02 0.01 0.01 0.01 0.01 0.00 0.01 0.00 0.00 0.00 0.00 0.00 0.00 0.00 0.00 0.00 0.00 0.00 0.00 0.00 0.00 0.00 0.00 0.00 0.00 0.00 0.00 0.00 0.00 0.00 0.00 0.00 0.00
0.02 0.00 0.00 0.00 0.00 0.00 0.00 0.00 0.00 0.00 0.00 0.00 0.00 0.01 0.01 0.00 0.00 0.00 0.00 0.00 0.00 0.00 0.00 0.00 0.00 0.00 0.00 0.00 0.00 0.00 0.00 0.00 0.00 0.00 0.00 0.00 0.00 0.00 0.00 0.00 0.00 0.00 0.00
MSLP
1013.27 1013.31 1013.28 1013.21 1013.13 1013.06 1013.03 1013.04 1013.09 1013.17 1013.24 1013.28 1013.27 1013.22 1013.12 1013.01 1012.88 1012.77 1012.68 1012.61 1012.55 1012.50 1012.46 1012.42 1012.40 1012.41 1012.45 1012.55 1012.71 1012.93 1013.18 1013.47 1013.76 1014.06 1014.34 1014.61 1014.87 1015.14 1015.40 1015.67 1015.96 1016.26 1016.57
1012.84 1012.83 1012.78 1012.69 1012.60 1012.53 1012.50 1012.53 1012.60 1012.70 1012.81 1012.89 1012.93 1012.91 1012.83 1012.71 1012.56 1012.40 1012.25 1012.11 1012.00 1011.91 1011.84 1011.80 1011.78 1011.79 1011.84 1011.94 1012.10 1012.30 1012.54 1012.81 1013.11 1013.41 1013.71 1014.00 1014.28 1014.56 1014.83 1015.10 1015.38 1015.67 1015.97
1012.35 1012.30 1012.22 1012.12 1012.02 1011.95 1011.94 1011.98 1012.08 1012.22 1012.38 1012.51 1012.59 1012.60 1012.55 1012.42 1012.24 1012.04 1011.82 1011.62 1011.44 1011.30 1011.19 1011.11 1011.07 1011.08 1011.12 1011.21 1011.35 1011.54 1011.77 1012.03 1012.33 1012.64 1012.96 1013.28 1013.60 1013.90 1014.20 1014.48 1014.77 1015.07 1015.37
1011.83 1011.74 1011.63 1011.51 1011.41 1011.35 1011.35 1011.41 1011.54 1011.71 1011.91 1012.08 1012.21 1012.26 1012.22 1012.10 1011.91 1011.66 1011.38 1011.11 1010.86 1010.65 1010.48 1010.36 1010.29 1010.27 1010.30 1010.37 1010.49 1010.66 1010.87 1011.13 1011.43 1011.76 1012.10 1012.46 1012.81 1013.15 1013.48 1013.81 1014.12 1014.44 1014.78
1011.32 1011.18 1011.04 1010.91 1010.80 1010.74 1010.74 1010.82 1010.96 1011.16 1011.39 1011.60 1011.76 1011.85 1011.84 1011.73 1011.52 1011.24 1010.92 1010.58 1010.26 1009.98 1009.75 1009.58 1009.47 1009.42 1009.41 1009.46 1009.55 1009.70 1009.90 1010.15 1010.44 1010.78 1011.15 1011.54 1011.93 1012.32 1012.70 1013.07 1013.43 1013.79 1014.16
1010.85 1010.67 1010.50 1010.34 1010.22 1010.15 1010.14 1010.21 1010.36 1010.57 1010.81 1011.05 1011.25 1011.37 1011.39 1011.30 1011.09 1010.80 1010.44 1010.06 1009.69 1009.35 1009.06 1008.84 1008.68 1008.59 1008.55 1008.56 1008.63 1008.75 1008.92 1009.16 1009.45 1009.79 1010.17 1010.58 1011.01 1011.44 1011.86 1012.28 1012.69 1013.10 1013.52
1010.48 1010.24 1010.03 1009.84 1009.68 1009.59 1009.56 1009.61 1009.74 1009.95 1010.20 1010.45 1010.68 1010.83 1010.89 1010.82 1010.64 1010.35 1009.98 1009.58 1009.17 1008.79 1008.47 1008.20 1008.01 1007.88 1007.80 1007.78 1007.82 1007.90 1008.05 1008.26 1008.53 1008.86 1009.24 1009.66 1010.10 1010.55 1011.01 1011.46 1011.91 1012.37 1012.83
1010.22 1009.94 1009.66 1009.42 1009.22 1009.08 1009.01 1009.02 1009.13 1009.31 1009.56 1009.83 1010.08 1010.27 1010.36 1010.34 1010.19 1009.93 1009.58 1009.18 1008.76 1008.37 1008.02 1007.74 1007.51 1007.36 1007.25 1007.20 1007.20 1007.26 1007.36 1007.53 1007.77 1008.06 1008.42 1008.82 1009.25 1009.70 1010.16 1010.63 1011.11 1011.59 1012.09
1010.10 1009.75 1009.41 1009.11 1008.84 1008.63 1008.50 1008.47 1008.53 1008.69 1008.92 1009.19 1009.46 1009.69 1009.84 1009.87 1009.77 1009.56 1009.25 1008.88 1008.48 1008.10 1007.76 1007.47 1007.24 1007.07 1006.95 1006.88 1006.85 1006.86 1006.92 1007.04 1007.22 1007.47 1007.77 1008.12 1008.51 1008.93 1009.38 1009.84 1010.31 1010.80 1011.30
1010.08 1009.67 1009.26 1008.87 1008.52 1008.24 1008.04 1007.94 1007.95 1008.07 1008.28 1008.56 1008.86 1009.13 1009.32 1009.42 1009.39 1009.24 1008.99 1008.67 1008.33 1007.98 1007.66 1007.40 1007.18 1007.01 1006.89 1006.80 1006.74 1006.72 1006.73 1006.79 1006.91 1007.08 1007.31 1007.60 1007.93 1008.29 1008.69 1009.11 1009.56 1010.03 1010.52
1010.13 1009.65 1009.16 1008.69 1008.25 1007.88 1007.59 1007.42 1007.37 1007.46 1007.66 1007.94 1008.26 1008.57 1008.82 1008.98 1009.03 1008.95 1008.78 1008.53 1008.25 1007.96 1007.69 1007.46 1007.28 1007.13 1007.02 1006.92 1006.85 1006.79 1006.76 1006.76 1006.81 1006.90 1007.05 1007.26 1007.51 1007.81 1008.14 1008.50 1008.90 1009.34 1009.80
1010.18 1009.64 1009.07 1008.52 1007.99 1007.52 1007.16 1006.91 1006.80 1006.85 1007.02 1007.31 1007.65 1008.00 1008.31 1008.53 1008.66 1008.66 1008.57 1008.40 1008.20 1007.98 1007.78 1007.61 1007.47 1007.36 1007.27 1007.18 1007.10 1007.02 1006.95 1006.90 1006.88 1006.90 1006.98 1007.10 1007.28 1007.50 1007.76 1008.07 1008.41 1008.80 1009.22
1010.18 1009.59 1008.96 1008.32 1007.71 1007.16 1006.71 1006.39 1006.22 1006.23 1006.39 1006.67 1007.02 1007.41 1007.77 1008.06 1008.26 1008.34 1008.34 1008.26 1008.14 1008.00 1007.88 1007.77 1007.69 1007.63 1007.57 1007.51 1007.43 1007.34 1007.24 1007.15 1007.08 1007.05 1007.06 1007.12 1007.23 1007.39 1007.59 1007.84 1008.13 1008.46 1008.84
1010.09 1009.47 1008.79 1008.09 1007.41 1006.79 1006.26 1005.88 1005.66 1005.62 1005.76 1006.03 1006.40 1006.81 1007.21 1007.56 1007.82 1007.99 1008.06 1008.07 1008.04 1007.99 1007.95 1007.92 1007.91 1007.91 1007.89 1007.86 1007.80 1007.71 1007.60 1007.49 1007.39 1007.32 1007.28 1007.30 1007.36 1007.48 1007.64 1007.85 1008.09 1008.38 1008.70
1009.90 1009.27 1008.58 1007.84 1007.11 1006.43 1005.85 1005.41 1005.15 1005.07 1005.18 1005.44 1005.81 1006.23 1006.66 1007.06 1007.38 1007.61 1007.77 1007.86 1007.92 1007.96 1008.01 1008.06 1008.12 1008.17 1008.21 1008.22 1008.18 1008.11 1008.01 1007.89 1007.78 1007.69 1007.64 1007.63 1007.67 1007.76 1007.90 1008.08 1008.29 1008.54 1008.82
1009.63 1009.03 1008.34 1007.61 1006.86 1006.15 1005.54 1005.06 1004.76 1004.64 1004.72 1004.95 1005.31 1005.74 1006.18 1006.61 1006.98 1007.27 1007.50 1007.68 1007.82 1007.94 1008.07 1008.20 1008.33 1008.45 1008.54 1008.59 1008.59 1008.54 1008.45 1008.35 1008.24 1008.15 1008.10 1008.09 1008.12 1008.21 1008.33 1008.49 1008.68 1008.90 1009.13
1009.34 1008.79 1008.14 1007.44 1006.72 1006.02 1005.39 1004.90 1004.56 1004.41 1004.45 1004.65 1004.98 1005.40 1005.84 1006.29 1006.69 1007.03 1007.32 1007.57 1007.78 1007.99 1008.19 1008.39 1008.58 1008.76 1008.89 1008.98 1009.02 1009.00 1008.93 1008.85 1008.75 1008.68 1008.63 1008.63 1008.67 1008.75 1008.87 1009.01 1009.18 1009.36 1009.56
1009.06 1008.59 1008.03 1007.39 1006.72 1006.06 1005.46 1004.96 1004.61 1004.43 1004.43 1004.59 1004.89 1005.27 1005.70 1006.14 1006.56 1006.94 1007.27 1007.57 1007.85 1008.12 1008.39 1008.65 1008.89 1009.11 1009.29 1009.41 1009.47 1009.48 1009.44 1009.37 1009.30 1009.23 1009.20 1009.20 1009.24 1009.31 1009.41 1009.54 1009.68 1009.82 1009.97
1008.83 1008.47 1008.01 1007.48 1006.90 1006.31 1005.75 1005.28 1004.93 1004.73 1004.69 1004.80 1005.05 1005.39 1005.79 1006.21 1006.62 1007.02 1007.38 1007.72 1008.05 1008.36 1008.67 1008.98 1009.26 1009.51 1009.71 1009.86 1009.94 1009.96 1009.94 1009.89 1009.82 1009.77 1009.73 1009.73 1009.76 1009.82 1009.90 1009.99 1010.09 1010.19 1010.29
1008.67 1008.42 1008.10 1007.69 1007.22 1006.72 1006.24 1005.81 1005.47 1005.26 1005.19 1005.26 1005.45 1005.74 1006.09 1006.48 1006.87 1007.26 1007.64 1008.00 1008.35 1008.69 1009.03 1009.35 1009.66 1009.92 1010.14 1010.29 1010.38 1010.42 1010.40 1010.36 1010.30 1010.24 1010.21 1010.19 1010.20 1010.23 1010.27 1010.31 1010.35 1010.39 1010.43
1008.54 1008.42 1008.22 1007.95 1007.61 1007.22 1006.83 1006.46 1006.15 1005.95 1005.86 1005.88 1006.03 1006.26 1006.56 1006.90 1007.26 1007.64 1008.00 1008.36 1008.72 1009.07 1009.42 1009.75 1010.05 1010.31 1010.53 1010.68 1010.77 1010.81 1010.80 1010.75 1010.70 1010.64 1010.59 1010.55 1010.53 1010.51 1010.50 1010.49 1010.46 1010.43 1010.40
1008.39 1008.38 1008.31 1008.16 1007.96 1007.69 1007.40 1007.11 1006.86 1006.68 1006.59 1006.59 1006.69 1006.87 1007.12 1007.42 1007.74 1008.08 1008.42 1008.77 1009.11 1009.46 1009.79 1010.11 1010.40 1010.65 1010.85 1011.00 1011.08 1011.12 1011.11 1011.07 1011.01 1010.95 1010.88 1010.83 1010.77 1010.71 1010.64 1010.56 1010.46 1010.36 1010.24
1008.15 1008.22 1008.25 1008.23 1008.15 1008.01 1007.84 1007.65 1007.47 1007.34 1007.27 1007.27 1007.35 1007.49 1007.70 1007.95 1008.23 1008.53 1008.84 1009.16 1009.49 1009.81 1010.12 1010.42 1010.69 1010.92 1011.11 1011.24 1011.32 1011.35 1011.35 1011.31 1011.26 1011.20 1011.13 1011.05 1010.97 1010.87 1010.75 1010.60 1010.43 1010.24 1010.05
1007.75 1007.87 1007.98 1008.06 1008.10 1008.09 1008.04 1007.97 1007.89 1007.83 1007.81 1007.84 1007.92 1008.05 1008.23 1008.44 1008.68 1008.95 1009.23 1009.52 1009.82 1010.12 1010.41 1010.68 1010.93 1011.14 1011.31 1011.44 1011.52 1011.56 1011.56 1011.54 1011.50 1011.45 1011.38 1011.30 1011.19 1011.06 1010.89 1010.69 1010.45 1010.19 1009.92
1007.14 1007.28 1007.44 1007.60 1007.75 1007.86 1007.95 1008.01 1008.06 1008.11 1008.17 1008.25 1008.37 1008.51 1008.67 1008.87 1009.09 1009.32 1009.58 1009.84 1010.12 1010.39 1010.66 1010.92 1011.15 1011.35 1011.52 1011.64 1011.72 1011.77 1011.79 1011.78 1011.76 1011.73 1011.68 1011.60 1011.49 1011.34 1011.14 1010.90 1010.61 1010.28 1009.94
1006.32 1006.45 1006.65 1006.87 1007.12 1007.36 1007.59 1007.80 1007.99 1008.18 1008.35 1008.52 1008.68 1008.86 1009.04 1009.24 1009.44 1009.66 1009.90 1010.14 1010.40 1010.67 1010.93 1011.17 1011.40 1011.59 1011.75 1011.88 1011.97 1012.03 1012.07 1012.09 1012.09 1012.08 1012.05 1011.99 1011.88 1011.73 1011.51 1011.24 1010.91 1010.54 1010.13
Thickness
5760 5759 5759 5758 5757 5756 5755 5754 5754 5754 5754 5754 5753 5752 5751 5751 5751 5750 5750 5752 5752 5753 5753 5754 5755 5756 5756 5756 5755 5753 5752 5750 5748 5747 5745 5743 5741 5740 5739 5737 5734 5731 5729
5757 5756 5755 5755 5754 5753 5752 5751 5750 5749 5748 5748 5748 5748 5748 5748 5748 5748 5748 5749 5750 5751 5751 5752 5754 5755 5756 5756 5755 5754 5752 5750 5749 5748 5746 5744 5742 5741 5740 5739 5737 5734 5731
5752 5751 5750 5751 5750 5749 5747 5746 5744 5741 5740 5740 5740 5741 5742 5743 5744 5744 5745 5745 5747 5748 5749 5750 5751 5753 5754 5755 5755 5754 5752 5750 5749 5748 5746 5745 5743 5741 5740 5739 5738 5736 5733
5746 5746 5745 5746 5746 5744 5743 5741 5739 5735 5734 5733 5733 5734 5736 5738 5739 5740 5741 5742 5743 5745 5746 5748 5749 5750 5751 5752 5753 5753 5752 5750 5749 5748 5746 5745 5743 5742 5740 5739 5738 5736 5734
5742 5742 5742 5742 5742 5740 5739 5739 5736 5732 5729 5728 5728 5729 5730 5732 5733 5735 5737 5738 5740 5742 5743 5745 5746 5747 5748 5750 5751 5751 5751 5750 5750 5748 5747 5745 5743 5742 5740 5739 5738 5736 5735
5739 5739 5739 5740 5739 5737 5736 5736 5734 5730 5728 5725 5723 5725 5727 5727 5727 5729 5732 5735 5737 5739 5741 5742 5743 5744 5746 5746 5748 5748 5749 5749 5749 5749 5747 5746 5744 5742 5740 5739 5737 5736 5734
5734 5734 5734 5734 5734 5733 5733 5733 5731 5727 5725 5722 5716 5716 5719 5722 5723 5725 5727 5729 5732 5735 5736 5738 5739 5740 5741 5742 5743 5744 5745 5746 5747 5748 5747 5746 5744 5741 5739 5738 5736 5735 5733
5727 5727 5727 5727 5727 5726 5727 5727 5725 5722 5721 5718 5712 5707 5706 5710 5716 5721 5722 5723 5726 5729 5730 5732 5734 5735 5736 5736 5737 5739 5740 5742 5745 5746 5746 5745 5744 5741 5739 5737 5735 5733 5732
5720 5719 5720 5720 5720 5719 5720 5720 5719 5716 5715 5714 5711 5705 5699 5700 5705 5711 5715 5717 5719 5721 5724 5726 5727 5729 5729 5729 5730 5732 5734 5737 5740 5742 5744 5744 5742 5740 5738 5735 5734 5732 5730
5710 5711 5711 5712 5712 5712 5713 5714 5714 5713 5712 5710 5708 5707 5704 5703 5698 5700 5706 5709 5711 5714 5716 5718 5720 5721 5721 5721 5722 5724 5727 5731 5734 5736 5739 5740 5740 5738 5736 5734 5732 5730 5728
5701 5701 5702 5703 5704 5706 5707 5708 5709 5709 5708 5707 5705 5703 5699 5697 5697 5695 5695 5699 5702 5706 5708 5709 5711 5712 5712 5713 5714 5716 5719 5722 5726 5729 5732 5734 5735 5735 5734 5732 5730 5728 5726
5691 5692 5693 5694 5696 5698 5700 5702 5703 5703 5703 5703 5702 5700 5697 5694 5693 5691 5691 5691 5691 5695 5698 5700 5701 5702 5703 5704 5706 5708 5710 5713 5716 5720 5723 5726 5728 5730 5730 5729 5728 5726 5724
5682 5682 5683 5684 5686 5689 5692 5694 5696 5697 5697 5697 5697 5696 5694 5693 5692 5689 5686 5684 5683 5685 5687 5689 5691 5693 5693 5694 5696 5698 5701 5704 5706 5710 5713 5716 5719 5721 5723 5724 5723 5722 5721
5675 5675 5674 5675 5678 5680 5683 5686 5688 5690 5691 5690 5690 5689 5688 5687 5686 5684 5682 5678 5674 5674 5676 5677 5680 5682 5683 5684 5686 5688 5690 5693 5696 5699 5703 5706 5709 5711 5713 5714 5715 5714 5714
5669 5668 5668 5669 5670 5672 5674 5677 5679 5681 5682 5683 5683 5682 5681 5680 5679 5678 5677 5675 5670 5666 5665 5667 5669 5671 5673 5675 5677 5678 5680 5682 5685 5688 5692 5695 5697 5699 5701 5703 5704 5704 5704
5663 5662 5661 5662 5663 5665 5667 5669 5671 5673 5673 5674 5674 5673 5673 5672 5671 5670 5669 5668 5667 5664 5659 5659 5660 5662 5664 5666 5667 5669 5670 5672 5674 5677 5680 5683 5686 5688 5689 5691 5692 5693 5694
5657 5655 5655 5655 5656 5657 5659 5661 5663 5664 5664 5665 5665 5664 5664 5663 5662 5662 5661 5660 5659 5658 5653 5650 5651 5653 5654 5656 5657 5658 5660 5661 5663 5666 5669 5672 5674 5676 5678 5680 5681 5682 5683
5651 5649 5648 5648 5648 5649 5651 5652 5654 5656 5656 5656 5656 5656 5655 5655 5654 5654 5653 5653 5651 5651 5649 5643 5641 5643 5644 5646 5647 5648 5649 5652 5654 5656 5658 5661 5663 5665 5667 5668 5670 5671 5672
5645 5643 5642 5641 5641 5641 5642 5643 5644 5645 5645 5645 5646 5646 5646 5646 5645 5645 5644 5643 5642 5642 5641 5638 5633 5633 5634 5636 5637 5638 5640 5641 5644 5646 5648 5650 5652 5655 5656 5658 5659 5660 5661
5639 5637 5636 5634 5633 5633 5633 5633 5634 5633 5633 5633 5634 5635 5636 5636 5636 5635 5634 5633 5632 5631 5630 5629 5626 5625 5625 5626 5628 5629 5630 5631 5633 5636 5638 5640 5642 5644 5646 5647 5648 5649 5650
5633 5631 5629 5628 5627 5626 5625 5624 5624 5623 5622 5622 5623 5624 5625 5626 5626 5626 5625 5623 5623 5622 5621 5620 5618 5618 5617 5618 5619 5620 5622 5623 5624 5625 5629 5631 5632 5634 5634 5635 5636 5637 5638
5626 5625 5623 5621 5620 5619 5617 5616 5616 5615 5613 5613 5613 5613 5613 5614 5614 5614 5614 5615 5615 5614 5612 5611 5610 5610 5608 5610 5611 5613 5614 5616 5617 5616 5618 5620 5622 5622 5623 5623 5624 5625 5626
5619 5618 5616 5615 5614 5612 5610 5609 5607 5606 5605 5604 5604 5604 5603 5602 5604 5604 5604 5604 5603 5604 5605 5605 5604 5603 5603 5604 5605 5606 5606 5607 5605 5605 5608 5610 5611 5611 5612 5612 5612 5613 5614
5611 5611 5610 5609 5607 5605 5604 5602 5600 5597 5595 5594 5595 5595 5594 5593 5595 5596 5595 5594 5594 5594 5595 5597 5597 5596 5598 5598 5599 5599 5599 5598 5597 5596 5598 5600 5600 5600 5601 5601 5600 5600 5601
5603 5603 5604 5603 5602 5599 5598 5595 5593 5590 5587 5585 5586 5587 5588 5587 5587 5589 5589 5588 5587 5586 5587 5589 5590 5590 5592 5592 5593 5595 5593 5594 5592 5591 5588 5589 5589 5588 5589 5589 5588 5587 5588
5596 5596 5597 5597 5597 5594 5592 5590 5588 5585 5581 5578 5578 5579 5581 5582 5583 5584 5585 5584 5583 5581 5582 5583 5583 5584 5585 5585 5586 5587 5587 5587 5586 5584 5581 5580 5580 5578 5579 5577 5576 5574 5574